Regional Weather Roundup
Issued by NWS

Home | Current Version | Previous Version | Text Only | Print | Product List | Glossary On
Versions: 1 2 3 4 5 6 7 8 9 10 11 12 13 14 15 16 17 18 19 20 21 22 23 24 25 26 27 28 29 30 31 32 33 34 35 36 37 38 39 40 41 42 43 44 45 46 47 48 49 50
000
ASUS43 KMKX 010321
RWRWI

WISCONSIN REGIONAL WEATHER ROUNDUP
NATIONAL WEATHER SERVICE MILWAUKEE/SULLIVAN WI
1000 PM CDT TUE JUN 30 2015

NOTE: "FAIR" INDICATES FEW OR NO CLOUDS BELOW 12,000 FEET WITH NO
SIGNIFICANT WEATHER AND/OR OBSTRUCTIONS TO VISIBILITY.

WIZ001-002-006>008-014>016-023>028-010400-
NORTHWEST WISCONSIN

CITY           SKY/WX    TMP DP  RH WIND       PRES   REMARKS
SUPERIOR ARPT  PTCLDY    53  50  91 NE3       29.99R
ASHLAND        CLEAR     45  45 100 CALM      30.00R
HAYWARD        CLEAR     53  49  86 CALM      29.99S
SIREN          CLEAR     60  52  74 CALM      29.97S
CUMBERLAND     PTCLDY    55  50  82 E6        29.98S
RICE LAKE      PTCLDY    58  49  74 E3        30.00S
CHETEK         PTCLDY    60  51  74 NE3       29.99R
LADYSMITH      PTCLDY    54  49  83 N6        30.00S
EAU CLAIRE     PTCLDY    60  49  66 NE6       29.96R
MENOMONIE      PTCLDY    62  50  64 NE6       29.97S
NEW RICHMOND   CLEAR     61  53  76 E6        29.97S
OSCEOLA        CLEAR     62  55  75 E6        29.99R
$$

WIZ003>005-009-010-017-018-010400-
NORTH CENTRAL WISCONSIN

CITY           SKY/WX    TMP DP  RH WIND       PRES   REMARKS
MANITOWISH WTR CLEAR     46  46 100 CALM      29.99S
ARBOR VITAE    CLEAR     48  44  85 N5        29.99S
WOODRUFF       CLEAR     48  44  85 N5        29.99S
RHINELANDER    CLEAR     50  45  83 N3        29.99R
EAGLE RIVER    CLEAR     49  44  83 CALM      29.99R
LAND O LAKES   CLEAR     45  43  94 CALM      30.00S
PHILLIPS       CLEAR     48  44  87 CALM      30.00R
TOMAHAWK       PTCLDY    46  43  90 CALM      29.99R
MEDFORD        PTCLDY    53  48  81 NE6       29.98R
MERRILL        PTCLDY    50  46  86 CALM      29.98R
$$

WIZ029-030-035-036-043>047-010400-
CENTRAL WISCONSIN

CITY           SKY/WX    TMP DP  RH WIND       PRES   REMARKS
WAUSAU         PTCLDY    57  46  66 N3        29.96R
MOSINEE        CLEAR     55  46  71 NE5       29.98R
MARSHFIELD     PTCLDY    59  47  64 NE7       29.96R
STEVENS POINT  PTCLDY    56  47  72 N7        29.97R
WAUPACA        PTCLDY    63  54  73 N6        29.95R
WAUTOMA        PTCLDY    62  55  77 CALM      29.94R
WISC RAPIDS    PTCLDY    61  49  64 N9        29.96R
CAMP DOUGLAS   CLEAR     54  54 100 N1        29.94R
$$

WIZ011>013-019>022-031-037>040-048>050-010400-
NORTHEAST WISCONSIN

CITY           SKY/WX    TMP DP  RH WIND       PRES   REMARKS
ANTIGO         CLEAR     50  47  88 NE6       29.97R
SHAWANO        CLEAR     57  48  73 NE12      29.96S
OCONTO         CLEAR     50  48  92 CALM      29.95R
STURGEON BAY   CLOUDY    55  45  67 N15       29.95R
GREEN BAY      CLEAR     57  50  77 N15       29.95R
MANITOWOC      PTCLDY    55  53  93 MISG      29.93R
APPLETON       PTCLDY    59  50  72 N9        29.93R
CLINTONVILLE   PTCLDY    55  48  76 N8        29.96R
OSHKOSH        MOCLDY    63  53  70 N12       29.92R
$$

WIZ032>034-041-042-053>061-010400-
SOUTHWEST WISCONSIN

CITY           SKY/WX    TMP DP  RH WIND       PRES   REMARKS
LA CROSSE      PTCLDY    64  55  72 N5        29.93R
SPARTA         CLEAR     58  53  82 CALM      29.95R
VIROQUA        PTCLDY    60  55  84 NE6       29.95R
BOSCOBEL       CLEAR     62  58  86 E3        29.92R
PRAIRIE DU CHI CLEAR     63  56  79 CALM      29.92R
PLATTEVILLE    CLEAR     65  60  82 CALM      29.92R
$$

WIZ056-057-062-063-064-067-068-010400-
SOUTH CENTRAL WISCONSIN

CITY           SKY/WX    TMP DP  RH WIND       PRES   REMARKS
REEDSBURG      CLEAR     61  54  78 N3        29.93S
BARABOO/DELLS  PTCLDY    62  53  73 N3        29.94R
LONE ROCK      CLEAR     65  54  67 N9        29.93R
MINERAL POINT  CLEAR     64  59  82 N7        29.93R
MADISON        MOCLDY    64  54  69 N6        29.91R
MIDDLETON      MOCLDY    64  56  75 N5        29.93R
WATERTOWN      CLOUDY    64  62  92 CALM      29.91R
MONROE         MOCLDY    64  59  82 N6        29.91R
JANESVILLE     PTCLDY    68  54  60 N6        29.89R
$$

WIZ051-052-058>065-066-070>072-010400-
SOUTHEAST WISCONSIN

CITY           SKY/WX    TMP DP  RH WIND       PRES   REMARKS
MILWAUKEE      MOCLDY    54  50  86 NE7       29.93R
WAUKESHA       PTCLDY    54  50  87 E6        29.94R
MILWAUKEE/TIMM PTCLDY    54  48  82 NE3       29.94R
RACINE         PTCLDY    55  50  83 NE8       29.94R
BURLINGTON     PTCLDY    57  54  91 E3        29.92R
KENOSHA        MOCLDY    57  52  83 NE9       29.92R
FOND DU LAC    CLOUDY    63  56  78 E10       29.92R
SHEBOYGAN      PTCLDY    54  50  86 NE7       29.93R
WEST BEND      MOCLDY    55  50  82 NE6       29.93R
JUNEAU         MOCLDY    63  57  81 N3        29.92R
$$

LSZ147-162-010400-
LAKE SUPERIOR

STATION/POSITION TIME  TEMP    WIND        PRES    WAVE
                       AIR SEA DIR/SP/G            HT/PER
                 (UTC) (F)     (DEG/KT/KT) (MB)    (FT/S)
W MID LAKE BUOY  0250   46 38  300/  4/  4 1016.5R   1/ 5
DEVILS ISLAND    0300   55     130/  7/  8 1016.3R
SAXON HARBOR     0200   50        CALM     1015.2S
$$

LMZ867-665-643>646-010400-
LAKE MICHIGAN

STATION/POSITION TIME  TEMP    WIND        PRES    WAVE
                       AIR SEA DIR/SP/G            HT/PER
                 (UTC) (F)     (DEG/KT/KT) (MB)    (FT/S)
CHAMBERS ISLAND  0200   58     320/ 16/ 20 1013.2S
N MID LAKE BUOY  0250   47 41  310/ 12/ 14 1012.9R   3/ 4
NORTHPORT PIER   0200   55     340/ 18/ 22 1013.2R
SISTER BAY       0244   55      20/ 14/ 22   N/A
ALGOMA LAKESHORE 0210          360/ 14/ 21   N/A
KEWAUNEE LAKESHO 0200   60      10/  8/ 14 1012.1R
SHEBOYGAN LAKESH 0300   54      40/ 15/ 16 1013.7R
PORT WASHINGTON  0240   57      40/ 10/ 13 1013.9R
ATWATER BUOY     0300   56      20/ 12/ 16 1014.5R
MILWAUKEE LAKESH 0300   55      20/  9/ 11   N/A
KENOSHA   LAKESH 0200   58      20/ 11/ 12 1012.5R
$$

TC  - TEMPERATURE IN CELSIUS
VSB - VISIBILITY IN STATUTE MILES
WCI - WIND CHILL INDEX
HX  - HEAT INDEX



USA.gov is the U.S. government's official web portal to all federal, state and local government web resources and services.